Tracking 20241 objects as of 26-Jan-2020
HD Live streaming from Space Station
objects crossing your sky now

COSMOS 2251 DEB

Track COSMOS 2251 DEB now!
10-day predictions


NORAD ID: 39111
Int'l Code: 1993-036BUA
Perigee: 724.8 km
Apogee: 758.8 km
Inclination: 74.0 °
Period: 99.5 minutes
Semi major axis: 7112 km
RCS: 0.003 m2 (small)
Launch date: June 16, 1993
Source: Commonwealth of Independent States (former USSR) (CIS)
Launch site: PLESETSK MISSILE AND SPACE COMPLEX (PKMTR)

Note: This is SATELLITE DEBRIS
aabbcc
Your satellite tracking list
Your tracking list is empty




NASA's NSSDC Master Catalog

Two Line Element Set (TLE):
1 39111U 93036BUA 20025.70014109  .00000680  00000-0  19282-3 0  9996
2 39111  74.0329 184.1374 0023892  55.2683 305.0721 14.47256561368762
Source of the keplerian elements: AFSPC